Regional Weather Roundup
Issued by NWS

Home | Current Version | Previous Version | Graphics & Text | Print | Product List | Glossary On
Versions: 1 2 3 4 5 6 7 8 9 10 11 12 13 14 15 16 17 18 19 20 21 22 23 24 25 26 27 28 29 30 31 32 33 34 35 36 37 38 39 40 41 42 43 44 45 46 47 48 49 50
000
ASUS45 KSLC 011910
RWRUT

UTAH REGIONAL WEATHER ROUNDUP
NATIONAL WEATHER SERVICE SALT LAKE CITY UT
100 PM MDT MON SEP 01 2014

UTZ001>011-023>025-012000-

NORTHERN UTAH

CITY           SKY/WX    TMP DP  RH WIND       PRES   REMARKS
HILL AFB       SUNNY     71  37  28 VRB7      30.12S
LOGAN          SUNNY     71  40  32 VRB3      30.10F
OGDEN          SUNNY     73  36  25 W7        30.10F
PROVO AIRPORT  SUNNY     70  45  40 VRB5      30.12F
SALT LAKE CITY MOSUNNY   75  35  23 NW8       30.09F
VERNAL         SUNNY     70  38  31 CALM      30.10F
WENDOVER       SUNNY     75  37  25 SE8       30.10F
HEBER CITY     SUNNY     72  39  30 CALM      30.13S
WEST JORDAN    SUNNY     73  48  40 N9        30.12S

$$

UTZ012>022-026-027-012000-

SOUTHERN UTAH

CITY           SKY/WX    TMP DP  RH WIND       PRES   REMARKS
BRYCE CANYON   SUNNY     75  35  23 NW12      30.25F
CEDAR CITY     SUNNY     82  33  17 W6        30.11F
MILFORD        SUNNY     82  37  20 N9        30.09F
MOAB/CYNLANDS  SUNNY     83  32  16 VRB7      30.01F
PRICE          SUNNY     77  32  19 S6        30.12F
ST GEORGE      CLEAR     90  43  19 N3        29.94F
KANAB            N/A     88  37  16 SW12G21   30.09F

$$

REGIONAL REPORTS     COLORADO/ARIZONA

CITY           SKY/WX    TMP DP  RH WIND       PRES   REMARKS
CRAIG, CO      SUNNY     72  35  25 W7        30.12F
GRAND JUNCTION SUNNY     78  36  21 VRB3      30.05F
RIFLE          SUNNY     75  39  27 VRB6      30.09F
MONTROSE       SUNNY     79  33  19 VRB5      30.12F
CORTEZ         SUNNY     84  33  16 W16G23    30.13F
PAGE, AZ       SUNNY     91  36  14 N8        30.01F
GRAND CANYON   SUNNY     79  37  22 S12G18    30.22F
KINGMAN        SUNNY     95  40  14 S17G23    29.98S HX  91
FLAGSTAFF      SUNNY     76  42  29 SW13      30.26F

$$

REGIONAL REPORTS    NEVADA/IDAHO/WYOMING

CITY           SKY/WX    TMP DP  RH WIND       PRES   REMARKS
LAS VEGAS, NV  SUNNY     98  32  10 CALM      29.82F HX  92
ELY            SUNNY     76  32  20 NE6       30.17F
ELKO           SUNNY     76  31  19 VRB6      30.12F
POCATELLO, ID  MOSUNNY   70  38  31 W16G23    30.12S
BURLEY         SUNNY     69  42  37 W12G20    30.10F
EVANSTON, WY   MOSUNNY   66  33  29 W20G28    30.20S
ROCK SPRINGS   SUNNY     68  29  23 W23G32    30.15R

$$



USA.gov is the U.S. government's official web portal to all federal, state and local government web resources and services.